When you browse on this site, cookies collect data to enhance your experience and personalize the content and advertising you see.
Visit our Privacy Policy to learn more. By continuing to use the site, you agree to this use of cookies and data.
  • In Latvia
  • List of Countries
  • For 7 days
  • Water Temperature
  • Satellite Maps
  • Weather Map
  • Weather Widgets
  • user-avatar
    Login

    Hourly Weather Burgdorf

    Today, 21 July, Sunday

    Time Temperature Precipitation Wind Pressure Humidity
    00:00 +19°C° 0.2 mm 1 mps 711 mmHg 90%
    01:00 +19°C° 0.2 mm 1 mps 712 mmHg 91%
    02:00 +19°C° 0.9 mm 1 mps 712 mmHg 92%
    03:00 +19°C° 0.9 mm 1 mps 712 mmHg 94%
    04:00 +19°C° 0.9 mm 1 mps 712 mmHg 96%
    05:00 +19°C° 0.4 mm 1 mps 712 mmHg 95%
    06:00 +20°C° 0.4 mm 1 mps 712 mmHg 94%
    07:00 +20°C° 0.4 mm 1 mps 713 mmHg 93%
    08:00 +21°C° 0.5 mm 1 mps 713 mmHg 89%
    09:00 +23°C° 0.5 mm 1 mps 713 mmHg 85%
    10:00 +24°C° 0.5 mm 1 mps 714 mmHg 81%
    11:00 +25°C° 0.3 mm 1 mps 714 mmHg 73%
    12:00 +26°C° 0.3 mm 2 mps 714 mmHg 66%
    13:00 +28°C° 0.3 mm 2 mps 714 mmHg 58%
    14:00 +28°C° 0.2 mm 2 mps 714 mmHg 57%
    15:00 +28°C° 0.2 mm 2 mps 714 mmHg 56%
    16:00 +28°C° 0.2 mm 2 mps 714 mmHg 55%
    17:00 +27°C° 0.2 mm 2 mps 714 mmHg 65%
    18:00 +25°C° 0.2 mm 1 mps 714 mmHg 74%
    19:00 +23°C° 0.2 mm 1 mps 714 mmHg 84%
    20:00 +22°C° 0 mm 1 mps 714 mmHg 85%
    21:00 +21°C° 0 mm 1 mps 714 mmHg 87%
    22:00 +19°C° 0 mm 1 mps 715 mmHg 89%
    23:00 +19°C° 0 mm 1 mps 715 mmHg 90%

    Tomorrow, 22 July, Monday

    Time Temperature Precipitation Wind Pressure Humidity
    00:00 +18°C° 0 mm 1 mps 714 mmHg 90%
    01:00 +16°C° 0 mm 0 mps 714 mmHg 91%
    02:00 +15°C° 0 mm 0 mps 714 mmHg 91%
    03:00 +15°C° 0 mm 0 mps 714 mmHg 92%
    04:00 +15°C° 0 mm 0 mps 714 mmHg 92%
    05:00 +16°C° 0 mm 0 mps 714 mmHg 90%
    06:00 +17°C° 0 mm 0 mps 715 mmHg 87%
    07:00 +18°C° 0 mm 0 mps 715 mmHg 85%
    08:00 +20°C° 0 mm 0 mps 715 mmHg 76%
    09:00 +25°C° 0 mm 1 mps 715 mmHg 68%
    10:00 +27°C° 0 mm 1 mps 716 mmHg 60%
    11:00 +28°C° 0 mm 1 mps 716 mmHg 55%
    12:00 +30°C° 0 mm 1 mps 716 mmHg 50%
    13:00 +31°C° 0 mm 1 mps 716 mmHg 45%
    14:00 +31°C° 0 mm 1 mps 715 mmHg 44%
    15:00 +31°C° 0 mm 1 mps 715 mmHg 44%
    16:00 +31°C° 0 mm 1 mps 715 mmHg 43%
    17:00 +29°C° 0 mm 1 mps 715 mmHg 52%
    18:00 +27°C° 0 mm 1 mps 714 mmHg 62%
    19:00 +26°C° 0 mm 1 mps 714 mmHg 71%
    20:00 +24°C° 0 mm 1 mps 714 mmHg 75%
    21:00 +22°C° 0 mm 1 mps 714 mmHg 79%
    22:00 +20°C° 0 mm 1 mps 714 mmHg 83%
    23:00 +20°C° 0 mm 1 mps 714 mmHg 85%

    Day after tomorrow, 23 July, Tuesday

    Time Temperature Precipitation Wind Pressure Humidity
    00:00 +19°C° 0 mm 1 mps 714 mmHg 87%
    01:00 +19°C° 0 mm 1 mps 713 mmHg 89%
    02:00 +19°C° 0 mm 1 mps 713 mmHg 90%
    03:00 +18°C° 0 mm 1 mps 713 mmHg 91%
    04:00 +16°C° 0 mm 0 mps 713 mmHg 93%
    05:00 +17°C° 0 mm 0 mps 713 mmHg 90%
    06:00 +18°C° 0 mm 0 mps 713 mmHg 87%
    07:00 +19°C° 0 mm 0 mps 713 mmHg 84%
    08:00 +22°C° 0 mm 0 mps 713 mmHg 76%
    09:00 +26°C° 0 mm 1 mps 713 mmHg 68%
    10:00 +28°C° 0 mm 1 mps 713 mmHg 60%
    11:00 +30°C° 0 mm 1 mps 713 mmHg 55%
    12:00 +31°C° 0 mm 1 mps 713 mmHg 50%
    13:00 +32°C° 0 mm 1 mps 713 mmHg 44%
    14:00 +32°C° 0 mm 1 mps 713 mmHg 44%
    15:00 +32°C° 0 mm 1 mps 712 mmHg 43%
    16:00 +32°C° 0 mm 1 mps 712 mmHg 42%
    17:00 +31°C° 0.1 mm 1 mps 712 mmHg 51%
    18:00 +29°C° 0.1 mm 1 mps 712 mmHg 60%
    19:00 +27°C° 0.1 mm 1 mps 711 mmHg 69%
    20:00 +26°C° 0 mm 1 mps 711 mmHg 72%
    21:00 +24°C° 0 mm 1 mps 711 mmHg 75%
    22:00 +23°C° 0 mm 1 mps 711 mmHg 78%
    23:00 +22°C° 0 mm 1 mps 711 mmHg 81%

    24 July, Wednesday

    Time Temperature Precipitation Wind Pressure Humidity
    00:00 +22°C° 0 mm 1 mps 711 mmHg 83%
    01:00 +21°C° 0 mm 1 mps 711 mmHg 85%
    02:00 +21°C° 0 mm 1 mps 711 mmHg 86%
    03:00 +21°C° 0 mm 1 mps 711 mmHg 86%
    04:00 +20°C° 0 mm 1 mps 710 mmHg 86%
    05:00 +21°C° 0 mm 1 mps 711 mmHg 84%
    06:00 +22°C° 0 mm 1 mps 711 mmHg 81%
    07:00 +23°C° 0 mm 1 mps 711 mmHg 79%
    08:00 +26°C° 0 mm 1 mps 711 mmHg 69%
    09:00 +28°C° 0 mm 1 mps 712 mmHg 59%
    10:00 +31°C° 0 mm 1 mps 712 mmHg 50%
    11:00 +32°C° 0 mm 1 mps 712 mmHg 46%
    12:00 +33°C° 0 mm 1 mps 712 mmHg 43%
    13:00 +35°C° 0 mm 2 mps 712 mmHg 40%
    14:00 +34°C° 0 mm 1 mps 712 mmHg 41%
    15:00 +34°C° 0 mm 1 mps 712 mmHg 41%
    16:00 +34°C° 0 mm 1 mps 711 mmHg 42%
    17:00 +32°C° 0 mm 1 mps 711 mmHg 51%
    18:00 +30°C° 0 mm 1 mps 711 mmHg 60%
    19:00 +28°C° 0 mm 1 mps 711 mmHg 69%
    20:00 +27°C° 0 mm 1 mps 711 mmHg 70%
    21:00 +26°C° 0 mm 1 mps 711 mmHg 70%
    22:00 +25°C° 0 mm 1 mps 711 mmHg 71%
    23:00 +24°C° 0 mm 1 mps 711 mmHg 71%

    25 July, Thursday

    Time Temperature Precipitation Wind Pressure Humidity
    00:00 +24°C° 0 mm 1 mps 711 mmHg 71%
    01:00 +21°C° 0 mm 0 mps 711 mmHg 72%
    02:00 +21°C° 0 mm 0 mps 710 mmHg 73%
    03:00 +20°C° 0 mm 0 mps 710 mmHg 75%
    04:00 +20°C° 0 mm 0 mps 710 mmHg 77%
    05:00 +20°C° 0 mm 0 mps 710 mmHg 75%
    06:00 +21°C° 0 mm 0 mps 710 mmHg 74%
    07:00 +22°C° 0 mm 0 mps 711 mmHg 73%
    08:00 +25°C° 0 mm 0 mps 711 mmHg 66%
    09:00 +27°C° 0 mm 0 mps 711 mmHg 59%
    10:00 +31°C° 0 mm 1 mps 711 mmHg 52%
    11:00 +32°C° 0 mm 1 mps 711 mmHg 48%
    12:00 +34°C° 0 mm 1 mps 711 mmHg 45%
    13:00 +35°C° 0 mm 1 mps 711 mmHg 41%
    14:00 +35°C° 0.1 mm 1 mps 710 mmHg 41%
    15:00 +35°C° 0.1 mm 1 mps 710 mmHg 40%
    16:00 +35°C° 0.1 mm 1 mps 710 mmHg 40%
    17:00 +33°C° 0.1 mm 1 mps 709 mmHg 49%
    18:00 +31°C° 0.1 mm 1 mps 709 mmHg 58%
    19:00 +27°C° 0.1 mm 0 mps 709 mmHg 67%
    20:00 +28°C° 0 mm 1 mps 709 mmHg 70%
    21:00 +26°C° 0 mm 1 mps 709 mmHg 73%
    22:00 +25°C° 0 mm 1 mps 709 mmHg 75%
    23:00 +24°C° 0.2 mm 1 mps 709 mmHg 77%

    26 July, Friday

    Time Temperature Precipitation Wind Pressure Humidity
    00:00 +24°C° 0.2 mm 1 mps 709 mmHg 78%
    01:00 +23°C° 0.2 mm 1 mps 709 mmHg 80%
    02:00 +23°C° 1 mm 1 mps 708 mmHg 84%
    03:00 +22°C° 1 mm 1 mps 708 mmHg 88%
    04:00 +21°C° 1 mm 1 mps 708 mmHg 91%
    05:00 +22°C° 0.4 mm 1 mps 708 mmHg 91%
    06:00 +22°C° 0.4 mm 1 mps 708 mmHg 90%
    07:00 +23°C° 0.4 mm 1 mps 709 mmHg 90%
    08:00 +24°C° 0.1 mm 1 mps 709 mmHg 81%
    09:00 +26°C° 0.1 mm 1 mps 709 mmHg 73%
    10:00 +27°C° 0.1 mm 1 mps 709 mmHg 65%
    11:00 +29°C° 0.3 mm 1 mps 710 mmHg 58%
    12:00 +30°C° 0.3 mm 2 mps 710 mmHg 51%
    13:00 +31°C° 0.3 mm 2 mps 710 mmHg 43%
    14:00 +31°C° 0.1 mm 2 mps 710 mmHg 43%
    15:00 +31°C° 0.1 mm 2 mps 709 mmHg 43%
    16:00 +31°C° 0.1 mm 2 mps 709 mmHg 42%
    17:00 +29°C° 0.4 mm 2 mps 709 mmHg 55%
    18:00 +27°C° 0.4 mm 2 mps 709 mmHg 68%
    19:00 +25°C° 0.4 mm 2 mps 709 mmHg 80%
    20:00 +23°C° 0.8 mm 1 mps 710 mmHg 86%
    21:00 +22°C° 0.8 mm 1 mps 710 mmHg 91%
    22:00 +20°C° 0.8 mm 1 mps 710 mmHg 97%
    23:00 +18°C° 0.6 mm 0 mps 710 mmHg 97%
    Show more